Weather in Andreevka

Russia / Moscow Oblast     55°58′51″N   37°07′51″E
temp.,
°C
wind,
m/s
gust,
m/s
humid.,
%
clouds,
%
prec.,
mm/h
press.,
hPa
HPBL,
m
19 september, sun
sun1900:00+4e51272100 0.0 1024489
03:00+4e51275100 0.0 1024519
06:00+3e51278100 0.0 1023488
09:00+5e61371100 0.0 1023639
12:00+8e71155100 0.0 10221038
15:00+8e71155100 0.0 10211024
18:00+7e71256100 0.0 1020947
21:00+7e71361100 0.4 1020992
20 september, mon
mon2000:00+5e71573100 1.4 1019863
03:00+4ene81785100 5.3 1018760
06:00+4ene91888100 2.0 1017832
09:00+4e81791100 4.6 1017941
12:00+3e81696100 3.8 1018911
15:00+3e81696100 5.8 1017883
18:00+4e81595100 1.8 1017962
21:00+5e81593100 2.3 1017922
21 september, tue
tue2100:00+5e71494100 1.1 1016892
03:00+5e71495100 2.9 1015823
06:00+5e61395100 2.0 1014782
09:00+5e61296100 2.9 1014629
12:00+5e61295100 0.5 1014618
15:00+7e61194100 0.7 1013617
18:00+7e61297100 0.4 1013626
21:00+7e61297100 1.3 1013591
22 september, wed
wed2200:00+7e51197100 1.4 1014553
03:00+6e5997100 3.6 1014434
06:00+5e4897100 3.3 1014389
09:00+6e3797100 4.4 1015455
12:00+7ese3590100 0.1 1016587
15:00+9e458193 0.1 1016683
18:00+8e478998 0.0 1017362
21:00+6e379590 0.0 1018236
23 september, thu
thu2300:00+6e2694100 0.0 1018255
03:00+6ene249394 0.0 1018125
06:00+6e2595100 0.0 1017173
09:00+8e3687100 0.0 1017336
12:00+10ese4783100 0.1 1016555
15:00+11ese4678100 0.2 1015760
18:00+10se2490100 0.4 1014125
21:00+8wsw2394100 0.8 101494